LAN2389 SEQM-SPJC

Flight info

Callsign LAN2389
Flight time 1h 47m
Altitude 37000
Route KETOM3B KETOM UM674 ROBIG/N0448F380 UM674 ATATU
Aircraft A319/M-SDE3FGHIRWY/LB1

Departure

Time 2026-04-28 22:42
Airport Mariscal Sucre International Airport (SEQM)

Arrival

Time 2026-04-29 00:29
Airport Jorge Chávez International Airport (SPJC)
Time Latitude Longitude Altitude Speed Heading
2026-04-28 22:19 -0.12613 -78.35912 7984 ft 0 kts 267°
2026-04-28 22:33 -0.12613 -78.35904 7987 ft 4 kts 267°
2026-04-28 22:33 -0.12612 -78.35877 7984 ft 4 kts 267°
2026-04-28 22:33 -0.12608 -78.35851 7984 ft 4 kts 245°
2026-04-28 22:34 -0.12592 -78.35834 7987 ft 3 kts 182°
2026-04-28 22:34 -0.12589 -78.35833 7984 ft 0 kts 179°
2026-04-28 22:37 -0.12603 -78.35833 7990 ft 6 kts 180°
2026-04-28 22:37 -0.12661 -78.35831 7986 ft 10 kts 174°
2026-04-28 22:38 -0.12696 -78.35771 7987 ft 12 kts 89°
2026-04-28 22:38 -0.12693 -78.35674 7985 ft 15 kts 88°
2026-04-28 22:38 -0.12739 -78.35594 7990 ft 15 kts 178°
2026-04-28 22:38 -0.12850 -78.35594 7986 ft 15 kts 177°
2026-04-28 22:39 -0.12963 -78.35587 7985 ft 17 kts 178°
2026-04-28 22:39 -0.13089 -78.35584 7986 ft 19 kts 178°
2026-04-28 22:39 -0.13229 -78.35577 7986 ft 21 kts 178°
2026-04-28 22:39 -0.13368 -78.35572 7985 ft 21 kts 178°
2026-04-28 22:40 -0.13454 -78.35568 7987 ft 12 kts 177°
2026-04-28 22:40 -0.13545 -78.35564 7985 ft 14 kts 177°
2026-04-28 22:40 -0.13606 -78.35511 7985 ft 11 kts 79°
2026-04-28 22:40 -0.13525 -78.35460 7991 ft 18 kts 27°
2026-04-28 22:41 -0.13397 -78.35403 7989 ft 17 kts 12°
2026-04-28 22:41 -0.13362 -78.35400 7988 ft 0 kts 360°
2026-04-28 22:41 -0.13343 -78.35400 7992 ft 11 kts 359°
2026-04-28 22:41 -0.13079 -78.35411 7990 ft 71 kts 357°
2026-04-28 22:42 -0.12376 -78.35442 7987 ft 129 kts 357°
2026-04-28 22:42 -0.11337 -78.35483 8222 ft 153 kts 358°
2026-04-28 22:42 -0.10259 -78.35548 8697 ft 160 kts 356°
2026-04-28 22:42 -0.09124 -78.35625 9178 ft 164 kts 357°
2026-04-28 22:43 -0.07985 -78.35694 9546 ft 167 kts 357°
2026-04-28 22:43 -0.06758 -78.35760 9708 ft 186 kts 356°
2026-04-28 22:43 -0.05389 -78.35834 9862 ft 208 kts 356°
2026-04-28 22:43 -0.03862 -78.35918 9994 ft 232 kts 356°
2026-04-28 22:44 -0.02161 -78.36011 10210 ft 257 kts 356°
2026-04-28 22:44 -0.00293 -78.36111 10477 ft 281 kts 356°
2026-04-28 22:44 0.01694 -78.36489 10698 ft 304 kts 335°
2026-04-28 22:44 0.03373 -78.37858 10884 ft 327 kts 305°
2026-04-28 22:45 0.04205 -78.40011 11238 ft 342 kts 276°
2026-04-28 22:45 0.03901 -78.42367 11773 ft 349 kts 248°
2026-04-28 22:45 0.02546 -78.44340 12347 ft 354 kts 220°
2026-04-28 22:45 0.00401 -78.45520 12961 ft 356 kts 193°
2026-04-28 22:46 -0.02050 -78.45632 13585 ft 355 kts 169°
2026-04-28 22:46 -0.04501 -78.45215 14219 ft 358 kts 168°
2026-04-28 22:46 -0.06965 -78.44785 14773 ft 361 kts 168°
2026-04-28 22:46 -0.09452 -78.44346 15323 ft 365 kts 168°
2026-04-28 22:47 -0.11957 -78.43902 15875 ft 368 kts 168°
2026-04-28 22:47 -0.14492 -78.43476 16431 ft 371 kts 172°
2026-04-28 22:47 -0.17085 -78.43597 16955 ft 378 kts 188°
2026-04-28 22:47 -0.19681 -78.44067 17512 ft 380 kts 189°
2026-04-28 22:48 -0.22291 -78.44543 18056 ft 383 kts 189°
2026-04-28 22:48 -0.24930 -78.45024 18586 ft 387 kts 189°
2026-04-28 22:48 -0.27592 -78.45507 19041 ft 390 kts 189°
2026-04-28 22:48 -0.30270 -78.45989 19507 ft 393 kts 188°
2026-04-28 22:49 -0.32993 -78.46195 19959 ft 394 kts 178°
2026-04-28 22:49 -0.35752 -78.46170 20431 ft 397 kts 178°
2026-04-28 22:49 -0.38486 -78.46148 20886 ft 399 kts 178°
2026-04-28 22:49 -0.41308 -78.46131 21343 ft 402 kts 178°
2026-04-28 22:50 -0.44081 -78.46117 21780 ft 405 kts 178°
2026-04-28 22:50 -0.46908 -78.46110 22229 ft 408 kts 178°
2026-04-28 22:50 -0.49758 -78.46101 22663 ft 411 kts 178°
2026-04-28 22:50 -0.52626 -78.46089 23091 ft 414 kts 178°
2026-04-28 22:51 -0.55513 -78.46076 23497 ft 416 kts 178°
2026-04-28 22:51 -0.58415 -78.46061 23888 ft 419 kts 178°
2026-04-28 22:51 -0.61345 -78.46046 24245 ft 421 kts 178°
2026-04-28 22:51 -0.64279 -78.46033 24601 ft 423 kts 178°
2026-04-28 22:52 -0.67235 -78.46019 24950 ft 424 kts 178°
2026-04-28 22:52 -0.70197 -78.46003 25310 ft 426 kts 178°
2026-04-28 22:52 -0.73168 -78.45991 25667 ft 427 kts 178°
2026-04-28 22:52 -0.76141 -78.45981 26014 ft 429 kts 179°
2026-04-28 22:53 -0.79134 -78.45968 26356 ft 430 kts 178°
2026-04-28 22:53 -0.82137 -78.45954 26686 ft 432 kts 179°
2026-04-28 22:53 -0.85148 -78.45938 27018 ft 434 kts 179°
2026-04-28 22:53 -0.88138 -78.45921 27342 ft 436 kts 179°
2026-04-28 22:54 -0.91174 -78.45903 27667 ft 437 kts 179°
2026-04-28 22:54 -0.94226 -78.45887 27979 ft 439 kts 179°
2026-04-28 22:54 -0.97292 -78.45873 28282 ft 441 kts 179°
2026-04-28 22:54 -1.00366 -78.45859 28585 ft 443 kts 179°
2026-04-28 22:55 -1.03457 -78.45846 28884 ft 445 kts 179°
2026-04-28 22:55 -1.06559 -78.45833 29177 ft 447 kts 179°
2026-04-28 22:55 -1.09683 -78.45816 29451 ft 449 kts 179°
2026-04-28 22:55 -1.12821 -78.45797 29721 ft 451 kts 179°
2026-04-28 22:56 -1.15966 -78.45727 29995 ft 453 kts 177°
2026-04-28 22:56 -1.19111 -78.45589 30262 ft 454 kts 176°
2026-04-28 22:56 -1.22280 -78.45410 30466 ft 456 kts 176°
2026-04-28 22:57 -1.23309 -78.45348 30530 ft 457 kts 176°
2026-04-28 22:57 -1.25844 -78.45054 30883 ft 452 kts 168°
2026-04-28 22:57 -1.28969 -78.44559 31003 ft 458 kts 173°
2026-04-28 22:57 -1.32170 -78.44350 31149 ft 462 kts 178°
2026-04-28 22:58 -1.35392 -78.44318 31347 ft 465 kts 179°
2026-04-28 22:58 -1.38634 -78.44342 31560 ft 467 kts 179°
2026-04-28 22:58 -1.41889 -78.44338 31774 ft 469 kts 178°
2026-04-28 22:58 -1.45157 -78.44271 32074 ft 468 kts 177°
2026-04-28 22:59 -1.48410 -78.44141 32407 ft 468 kts 176°
2026-04-28 22:59 -1.51656 -78.43968 32725 ft 467 kts 175°
2026-04-28 22:59 -1.54909 -78.43773 33051 ft 467 kts 175°
2026-04-28 22:59 -1.58161 -78.43579 33386 ft 467 kts 175°
2026-04-28 23:00 -1.61406 -78.43395 33736 ft 467 kts 175°
2026-04-28 23:00 -1.64654 -78.43219 34085 ft 467 kts 176°
2026-04-28 23:00 -1.67892 -78.43054 34382 ft 466 kts 176°
2026-04-28 23:00 -1.71130 -78.42900 34698 ft 465 kts 176°
2026-04-28 23:01 -1.74324 -78.42752 35020 ft 465 kts 176°
2026-04-28 23:01 -1.77551 -78.42602 35354 ft 464 kts 176°
2026-04-28 23:01 -1.80772 -78.42446 35689 ft 462 kts 176°
2026-04-28 23:01 -1.83984 -78.42289 36031 ft 461 kts 176°
2026-04-28 23:02 -1.87188 -78.42130 36352 ft 460 kts 176°
2026-04-28 23:02 -1.90380 -78.41970 36668 ft 459 kts 176°
2026-04-28 23:02 -1.93573 -78.41809 36978 ft 459 kts 176°
2026-04-28 23:02 -1.96766 -78.41649 37099 ft 458 kts 176°
2026-04-28 23:03 -1.99947 -78.41493 37118 ft 457 kts 176°
2026-04-28 23:03 -2.06304 -78.41182 37113 ft 457 kts 176°
2026-04-28 23:04 -2.12610 -78.40874 37099 ft 457 kts 176°
2026-04-28 23:04 -2.22146 -78.40403 37097 ft 457 kts 175°
2026-04-28 23:05 -2.28518 -78.40090 37099 ft 458 kts 175°
2026-04-28 23:05 -2.34875 -78.39779 37070 ft 458 kts 175°
2026-04-28 23:06 -2.41251 -78.39457 37085 ft 459 kts 175°
2026-04-28 23:06 -2.47585 -78.39137 37102 ft 459 kts 175°
2026-04-28 23:07 -2.54014 -78.38825 37122 ft 459 kts 175°
2026-04-28 23:07 -2.60360 -78.38517 37124 ft 460 kts 175°
2026-04-28 23:08 -2.66754 -78.38199 37121 ft 460 kts 175°
2026-04-28 23:08 -2.73159 -78.37879 37120 ft 461 kts 175°
2026-04-28 23:09 -2.79570 -78.37561 37121 ft 461 kts 175°
2026-04-28 23:09 -2.85980 -78.37241 37126 ft 461 kts 175°
2026-04-28 23:10 -2.92397 -78.36918 37129 ft 462 kts 175°
2026-04-28 23:10 -2.98820 -78.36602 37132 ft 462 kts 175°
2026-04-28 23:11 -3.05241 -78.36293 37136 ft 462 kts 175°
2026-04-28 23:11 -3.11668 -78.35980 37140 ft 462 kts 175°
2026-04-28 23:12 -3.18105 -78.35660 37135 ft 462 kts 175°
2026-04-28 23:12 -3.24529 -78.35334 37135 ft 463 kts 175°
2026-04-28 23:13 -3.30959 -78.35010 37118 ft 463 kts 175°
2026-04-28 23:13 -3.37399 -78.34694 37106 ft 463 kts 175°
2026-04-28 23:14 -3.43808 -78.34382 37096 ft 464 kts 175°
2026-04-28 23:14 -3.50256 -78.34064 37084 ft 464 kts 175°
2026-04-28 23:15 -3.56711 -78.33745 37068 ft 464 kts 175°
2026-04-28 23:15 -3.63166 -78.33432 37058 ft 464 kts 175°
2026-04-28 23:16 -3.69621 -78.33119 37044 ft 464 kts 175°
2026-04-28 23:16 -3.76084 -78.32802 37035 ft 465 kts 175°
2026-04-28 23:17 -3.82550 -78.32493 37026 ft 465 kts 176°
2026-04-28 23:17 -3.88978 -78.32190 37017 ft 465 kts 176°
2026-04-28 23:18 -3.95445 -78.31871 37013 ft 465 kts 176°
2026-04-28 23:18 -4.01920 -78.31553 37005 ft 465 kts 176°
2026-04-28 23:19 -4.08392 -78.31240 37003 ft 466 kts 176°
2026-04-28 23:19 -4.14868 -78.30936 36997 ft 466 kts 176°
2026-04-28 23:20 -4.21342 -78.30618 36997 ft 466 kts 176°
2026-04-28 23:20 -4.27819 -78.30298 36995 ft 466 kts 176°
2026-04-28 23:21 -4.34300 -78.29988 36993 ft 466 kts 176°
2026-04-28 23:21 -4.40750 -78.29675 36992 ft 466 kts 176°
2026-04-28 23:22 -4.46176 -78.29405 36992 ft 466 kts 176°
2026-04-28 23:22 -4.53710 -78.29046 36989 ft 466 kts 176°
2026-04-28 23:23 -4.60201 -78.28735 36986 ft 467 kts 176°
2026-04-28 23:23 -4.66696 -78.28414 36989 ft 467 kts 176°
2026-04-28 23:24 -4.73183 -78.28093 36990 ft 467 kts 176°
2026-04-28 23:24 -4.79681 -78.27776 36990 ft 467 kts 176°
2026-04-28 23:25 -4.85074 -78.27517 36992 ft 467 kts 176°
2026-04-28 23:25 -4.91566 -78.27202 36998 ft 467 kts 176°
2026-04-28 23:26 -4.98058 -78.26891 37003 ft 467 kts 176°
2026-04-28 23:26 -5.04555 -78.26579 37013 ft 467 kts 176°
2026-04-28 23:27 -5.11049 -78.26257 37020 ft 467 kts 176°
2026-04-28 23:27 -5.17550 -78.25941 37031 ft 467 kts 176°
2026-04-28 23:28 -5.24056 -78.25626 37045 ft 467 kts 176°
2026-04-28 23:28 -5.30522 -78.25312 37061 ft 468 kts 176°
2026-04-28 23:29 -5.37020 -78.24993 37070 ft 468 kts 176°
2026-04-28 23:29 -5.43532 -78.24672 37086 ft 468 kts 176°
2026-04-28 23:30 -5.50037 -78.24353 37097 ft 468 kts 176°
2026-04-28 23:30 -5.56545 -78.24035 37111 ft 468 kts 176°
2026-04-28 23:31 -5.63049 -78.23717 37117 ft 468 kts 176°
2026-04-28 23:31 -5.69512 -78.23402 37130 ft 468 kts 176°
2026-04-28 23:32 -5.76060 -78.23081 37145 ft 468 kts 176°
2026-04-28 23:32 -5.82524 -78.22764 37154 ft 468 kts 176°
2026-04-28 23:33 -5.89033 -78.22446 37164 ft 468 kts 176°
2026-04-28 23:33 -5.95544 -78.22134 37176 ft 468 kts 176°
2026-04-28 23:34 -6.02053 -78.21818 37187 ft 468 kts 176°
2026-04-28 23:34 -6.08562 -78.21489 37196 ft 468 kts 176°
2026-04-28 23:35 -6.15074 -78.21169 37208 ft 468 kts 176°
2026-04-28 23:35 -6.21588 -78.20852 37213 ft 468 kts 176°
2026-04-28 23:36 -6.28063 -78.20543 37226 ft 468 kts 176°
2026-04-28 23:36 -6.34571 -78.20223 37232 ft 468 kts 176°
2026-04-28 23:37 -6.41082 -78.19902 37238 ft 468 kts 176°
2026-04-28 23:37 -6.47593 -78.19586 37239 ft 468 kts 176°
2026-04-28 23:38 -6.54106 -78.19267 37237 ft 469 kts 176°
2026-04-28 23:38 -6.60629 -78.18948 37242 ft 469 kts 177°
2026-04-28 23:39 -6.67144 -78.18634 37242 ft 469 kts 177°
2026-04-28 23:39 -6.73668 -78.18313 37243 ft 469 kts 176°
2026-04-28 23:40 -6.80189 -78.17987 37240 ft 469 kts 177°
2026-04-28 23:40 -6.86719 -78.17670 37234 ft 469 kts 177°
2026-04-28 23:41 -6.93243 -78.17350 37230 ft 470 kts 177°
2026-04-28 23:41 -6.99733 -78.17029 37228 ft 470 kts 176°
2026-04-28 23:42 -7.06269 -78.16706 37228 ft 470 kts 176°
2026-04-28 23:42 -7.12803 -78.16382 37225 ft 470 kts 177°
2026-04-28 23:43 -7.19342 -78.16061 37212 ft 471 kts 177°
2026-04-28 23:43 -7.25882 -78.15739 37191 ft 471 kts 177°
2026-04-28 23:44 -7.32442 -78.15415 37178 ft 472 kts 177°
2026-04-28 23:44 -7.38996 -78.15095 37174 ft 472 kts 177°
2026-04-28 23:45 -7.45559 -78.14765 37218 ft 472 kts 177°
2026-04-28 23:45 -7.52119 -78.14433 37219 ft 472 kts 177°
2026-04-28 23:46 -7.58686 -78.14106 37222 ft 472 kts 177°
2026-04-28 23:46 -7.65265 -78.13783 37222 ft 473 kts 177°
2026-04-28 23:47 -7.71838 -78.13454 37229 ft 473 kts 177°
2026-04-28 23:47 -7.78409 -78.13127 37236 ft 473 kts 177°
2026-04-28 23:48 -7.84985 -78.12804 37242 ft 473 kts 177°
2026-04-28 23:48 -7.91521 -78.12478 37243 ft 474 kts 177°
2026-04-28 23:49 -7.98107 -78.12150 37239 ft 474 kts 177°
2026-04-28 23:49 -8.04706 -78.11814 37240 ft 474 kts 177°
2026-04-28 23:50 -8.11302 -78.11483 37238 ft 475 kts 177°
2026-04-28 23:50 -8.17905 -78.11160 37235 ft 475 kts 177°
2026-04-28 23:51 -8.24514 -78.10834 37224 ft 476 kts 177°
2026-04-28 23:51 -8.31128 -78.10500 37212 ft 476 kts 177°
2026-04-28 23:52 -8.37749 -78.10165 37197 ft 476 kts 177°
2026-04-28 23:52 -8.44370 -78.09834 37189 ft 476 kts 177°
2026-04-28 23:53 -8.50946 -78.09513 37177 ft 476 kts 177°
2026-04-28 23:53 -8.57572 -78.09187 37162 ft 477 kts 177°
2026-04-28 23:54 -8.64200 -78.08855 37154 ft 477 kts 177°
2026-04-28 23:54 -8.70827 -78.08515 37139 ft 477 kts 177°
2026-04-28 23:55 -8.77451 -78.08185 37124 ft 477 kts 177°
2026-04-28 23:55 -8.84076 -78.07853 37111 ft 477 kts 177°
2026-04-28 23:56 -8.90709 -78.07524 37102 ft 477 kts 177°
2026-04-28 23:56 -8.97340 -78.07169 37094 ft 477 kts 177°
2026-04-28 23:57 -9.03933 -78.06860 37084 ft 477 kts 177°
2026-04-28 23:57 -9.10568 -78.06545 37071 ft 477 kts 177°
2026-04-28 23:58 -9.17200 -78.06219 37053 ft 477 kts 177°
2026-04-28 23:58 -9.23836 -78.05883 37047 ft 478 kts 177°
2026-04-28 23:59 -9.30478 -78.05544 37022 ft 478 kts 177°
2026-04-28 23:59 -9.37121 -78.05213 37024 ft 478 kts 177°
2026-04-29 00:00 -9.43776 -78.04882 37013 ft 478 kts 177°
2026-04-29 00:00 -9.50424 -78.04548 37011 ft 479 kts 177°
2026-04-29 00:01 -9.57079 -78.04216 37013 ft 479 kts 177°
2026-04-29 00:01 -9.63741 -78.03880 37007 ft 479 kts 177°
2026-04-29 00:02 -9.70396 -78.03537 37003 ft 479 kts 177°
2026-04-29 00:02 -9.77052 -78.03195 36995 ft 479 kts 177°
2026-04-29 00:03 -9.83720 -78.02863 36988 ft 480 kts 178°
2026-04-29 00:03 -9.90384 -78.02536 36991 ft 480 kts 178°
2026-04-29 00:04 -9.97052 -78.02200 36982 ft 480 kts 177°
2026-04-29 00:04 -10.03725 -78.01858 36983 ft 480 kts 177°
2026-04-29 00:05 -10.10409 -78.01517 36981 ft 481 kts 178°
2026-04-29 00:05 -10.17090 -78.01105 36967 ft 482 kts 172°
2026-04-29 00:06 -10.23466 -77.99219 36961 ft 481 kts 153°
2026-04-29 00:06 -10.29506 -77.96252 36960 ft 482 kts 153°
2026-04-29 00:07 -10.35580 -77.93296 36048 ft 491 kts 153°
2026-04-29 00:07 -10.38692 -77.91780 35072 ft 501 kts 153°
2026-04-29 00:07 -10.41844 -77.90239 34169 ft 506 kts 153°
2026-04-29 00:08 -10.45026 -77.88684 33289 ft 506 kts 153°
2026-04-29 00:08 -10.48191 -77.87137 32363 ft 504 kts 153°
2026-04-29 00:08 -10.51346 -77.85596 31551 ft 499 kts 154°
2026-04-29 00:08 -10.54455 -77.84076 30826 ft 493 kts 154°
2026-04-29 00:09 -10.57489 -77.82589 30116 ft 487 kts 154°
2026-04-29 00:09 -10.60522 -77.81101 29325 ft 481 kts 154°
2026-04-29 00:09 -10.63515 -77.79632 28590 ft 473 kts 154°
2026-04-29 00:09 -10.66454 -77.78193 27896 ft 465 kts 154°
2026-04-29 00:10 -10.69346 -77.76778 27217 ft 456 kts 154°
2026-04-29 00:10 -10.72180 -77.75392 26564 ft 448 kts 154°
2026-04-29 00:10 -10.74971 -77.74029 25898 ft 441 kts 154°
2026-04-29 00:10 -10.77711 -77.72690 25249 ft 433 kts 154°
2026-04-29 00:11 -10.80409 -77.71371 24639 ft 425 kts 154°
2026-04-29 00:11 -10.83042 -77.70081 24056 ft 417 kts 154°
2026-04-29 00:11 -10.88184 -77.67564 22718 ft 404 kts 154°
2026-04-29 00:12 -10.90662 -77.66353 22206 ft 395 kts 154°
2026-04-29 00:12 -10.93101 -77.65156 21746 ft 385 kts 154°
2026-04-29 00:12 -10.95480 -77.63982 21296 ft 375 kts 154°
2026-04-29 00:12 -10.97796 -77.62839 20844 ft 366 kts 154°
2026-04-29 00:13 -11.00059 -77.61727 20395 ft 357 kts 154°
2026-04-29 00:13 -11.02277 -77.60639 19943 ft 350 kts 154°
2026-04-29 00:13 -11.04450 -77.59573 19515 ft 343 kts 154°
2026-04-29 00:13 -11.06584 -77.58525 19086 ft 338 kts 154°
2026-04-29 00:14 -11.07975 -77.57842 18807 ft 334 kts 154°
2026-04-29 00:14 -11.10064 -77.56816 18380 ft 331 kts 154°
2026-04-29 00:14 -11.12137 -77.55800 17924 ft 330 kts 154°
2026-04-29 00:14 -11.14201 -77.54787 17490 ft 329 kts 154°
2026-04-29 00:15 -11.16257 -77.53778 17068 ft 327 kts 154°
2026-04-29 00:15 -11.18302 -77.52772 16638 ft 326 kts 154°
2026-04-29 00:15 -11.20338 -77.51770 16219 ft 325 kts 154°
2026-04-29 00:15 -11.23016 -77.50453 16052 ft 322 kts 154°
2026-04-29 00:16 -11.24377 -77.49785 15961 ft 322 kts 154°
2026-04-29 00:16 -11.26402 -77.48802 15543 ft 323 kts 155°
2026-04-29 00:16 -11.28432 -77.47843 15054 ft 321 kts 155°
2026-04-29 00:16 -11.30458 -77.46898 14567 ft 318 kts 155°
2026-04-29 00:17 -11.32459 -77.45966 14100 ft 315 kts 155°
2026-04-29 00:17 -11.34418 -77.45051 13612 ft 313 kts 155°
2026-04-29 00:17 -11.36389 -77.44127 13134 ft 310 kts 155°
2026-04-29 00:17 -11.38337 -77.43212 12673 ft 307 kts 155°
2026-04-29 00:18 -11.40274 -77.42302 12215 ft 305 kts 155°
2026-04-29 00:18 -11.42202 -77.41396 11768 ft 305 kts 155°
2026-04-29 00:18 -11.44135 -77.40487 11303 ft 307 kts 155°
2026-04-29 00:18 -11.46080 -77.39569 10862 ft 308 kts 155°
2026-04-29 00:19 -11.48017 -77.38653 10444 ft 308 kts 155°
2026-04-29 00:19 -11.49954 -77.37737 10100 ft 305 kts 155°
2026-04-29 00:19 -11.51893 -77.36822 9708 ft 305 kts 155°
2026-04-29 00:19 -11.53809 -77.35919 9321 ft 303 kts 155°
2026-04-29 00:20 -11.55716 -77.35019 8934 ft 301 kts 155°
2026-04-29 00:20 -11.57606 -77.34127 8441 ft 299 kts 155°
2026-04-29 00:20 -11.59470 -77.33246 8178 ft 288 kts 155°
2026-04-29 00:20 -11.61249 -77.32405 7968 ft 277 kts 155°
2026-04-29 00:21 -11.62979 -77.31589 7702 ft 270 kts 155°
2026-04-29 00:21 -11.64654 -77.30792 7586 ft 261 kts 154°
2026-04-29 00:21 -11.66271 -77.30014 7467 ft 253 kts 154°
2026-04-29 00:21 -11.67814 -77.29270 7339 ft 245 kts 154°
2026-04-29 00:22 -11.69347 -77.28533 7076 ft 243 kts 154°
2026-04-29 00:22 -11.70877 -77.27798 6754 ft 244 kts 154°
2026-04-29 00:22 -11.72419 -77.27058 6416 ft 245 kts 154°
2026-04-29 00:22 -11.73945 -77.26324 6067 ft 240 kts 154°
2026-04-29 00:23 -11.75440 -77.25605 5730 ft 234 kts 154°
2026-04-29 00:23 -11.76899 -77.24903 5409 ft 229 kts 154°
2026-04-29 00:23 -11.78344 -77.24239 4968 ft 229 kts 158°
2026-04-29 00:23 -11.79815 -77.23623 4590 ft 227 kts 156°
2026-04-29 00:24 -11.81235 -77.22954 4267 ft 222 kts 154°
2026-04-29 00:24 -11.82607 -77.22280 3980 ft 216 kts 154°
2026-04-29 00:24 -11.83948 -77.21619 3704 ft 212 kts 154°
2026-04-29 00:24 -11.85252 -77.20976 3436 ft 204 kts 154°
2026-04-29 00:25 -11.86509 -77.20357 3184 ft 198 kts 154°
2026-04-29 00:25 -11.87725 -77.19758 2925 ft 196 kts 154°
2026-04-29 00:25 -11.88944 -77.19157 2695 ft 186 kts 154°
2026-04-29 00:25 -11.90065 -77.18569 2411 ft 176 kts 148°
2026-04-29 00:26 -11.90992 -77.17804 2056 ft 173 kts 136°
2026-04-29 00:26 -11.91800 -77.16940 1769 ft 164 kts 133°
2026-04-29 00:26 -11.92594 -77.16165 1530 ft 148 kts 143°
2026-04-29 00:26 -11.93433 -77.15678 1405 ft 134 kts 156°
2026-04-29 00:27 -11.94253 -77.15279 1296 ft 129 kts 156°
2026-04-29 00:27 -11.95068 -77.14904 1179 ft 128 kts 158°
2026-04-29 00:27 -11.95874 -77.14521 1132 ft 129 kts 156°
2026-04-29 00:27 -11.96674 -77.14118 987 ft 127 kts 156°
2026-04-29 00:28 -11.97464 -77.13723 839 ft 125 kts 156°
2026-04-29 00:28 -11.98242 -77.13348 682 ft 123 kts 158°
2026-04-29 00:28 -11.99008 -77.12988 500 ft 121 kts 158°
2026-04-29 00:28 -11.99769 -77.12615 309 ft 121 kts 155°
2026-04-29 00:29 -12.00526 -77.12247 163 ft 120 kts 155°
2026-04-29 00:29 -12.01249 -77.11887 61 ft 103 kts 155°
2026-04-29 00:29 -12.01800 -77.11621 68 ft 64 kts 154°
2026-04-29 00:29 -12.02099 -77.11475 83 ft 36 kts 154°
2026-04-29 00:30 -12.02172 -77.11410 86 ft 11 kts 111°
2026-04-29 00:30 -12.02217 -77.11345 86 ft 9 kts 141°
2026-04-29 00:30 -12.02243 -77.11324 86 ft 0 kts 141°
2026-04-29 00:30 -12.02249 -77.11319 88 ft 2 kts 139°
2026-04-29 00:31 -12.02266 -77.11299 86 ft 5 kts 131°
2026-04-29 00:31 -12.02296 -77.11261 87 ft 9 kts 126°
2026-04-29 00:31 -12.02333 -77.11206 90 ft 9 kts 125°
2026-04-29 00:31 -12.02359 -77.11169 89 ft 5 kts 124°
2026-04-29 00:32 -12.02361 -77.11124 89 ft 8 kts 68°
2026-04-29 00:32 -12.02314 -77.11080 89 ft 9 kts 49°
2026-04-29 00:32 -12.02296 -77.11044 89 ft 8 kts 64°
2026-04-29 00:32 -12.02276 -77.11004 93 ft 6 kts 60°
2026-04-29 00:33 -12.02270 -77.10996 93 ft 2 kts 57°
2026-04-29 00:33 -12.02265 -77.10986 89 ft 0 kts 60°